#timestamp,LO_Frequency,Hit,StdDev 
1663794015.7,286046997.9,N
1663794035.5,286046996.2,N
1663794055.4,286046993.5,Y
1663794075.2,286046996.1,P
1663794095.0,286046998.8,N
1663794095.9,286046998.8,N
1663794115.1,286046999.7,N
1663794116.0,286046999.7,N
1663794135.8,286047002.3,N
1663794155.6,286047002.5,N
1663794175.5,286047000.0,N
1663794195.3,286047001.0,N
1663794215.2,286047000.4,N
1663794235.9,286047000.6,N
1663794255.7,286046998.5,N
1663794275.6,286047000.8,N
1663794295.4,286047000.3,N
1663794315.2,286046999.0,N
1663794335.1,286046998.4,N
1663794336.0,286046998.4,N
1663794355.8,286047002.6,N
1663794375.7,286047002.2,N
1663794395.5,286046999.7,N
1663794415.3,286047000.3,N
1663794435.2,286047002.3,N
1663794455.0,286046999.8,N
1663794455.9,286046999.8,N
1663794475.7,286046999.9,N
1663794495.6,286047001.1,N
1663794515.4,286047000.4,N
1663794535.3,286046999.9,N
1663794555.1,286047003.6,N
1663794556.0,286047003.6,N
1663794575.8,286047003.6,N
1663794595.7,286047003.9,N
1663794615.5,286047002.0,N
1663794635.4,286047002.7,N
1663794655.2,286047000.8,N
1663794675.0,286047000.4,N
1663794675.9,286047000.4,N
1663794695.8,286046998.9,N
1663794715.6,286046998.3,N
1663794735.4,286047000.1,N
1663794755.3,286047002.6,N
1663794775.1,286047003.1,N
1663794795.9,286047005.9,Y
1663794815.7,286047004.1,P
1663794835.5,286047004.0,N
1663794855.4,286047003.4,N
1663794875.2,286047005.6,Y
1663794895.0,286047002.5,P
1663794896.0,286047002.5,P
1663794915.8,286047000.4,N
1663794935.6,286046999.2,N
1663794955.5,286046999.3,N
1663794975.3,286046998.3,N
1663794995.1,286046997.6,N
1663795015.9,286046999.6,N
1663795035.7,286046997.2,N
1663795055.5,286046996.0,N
1663795075.4,286046997.8,N
1663795095.2,286046997.7,N
1663795115.1,286046995.3,N
1663795116.0,286046995.3,N
1663795135.8,286046996.1,N
1663795155.6,286046995.2,N
1663795175.5,286046995.2,N
1663795195.3,286046997.9,N
1663795215.1,286046998.6,N
1663795235.9,286047000.6,N
1663795255.7,286047001.2,N
1663795275.6,286046998.3,N
1663795295.4,286047001.2,N
1663795315.2,286046998.2,N
1663795335.1,286046999.1,N
1663795336.0,286046999.1,N
1663795355.8,286046999.4,N
1663795375.7,286046999.8,N
1663795395.5,286047002.1,N
1663795415.3,286047004.2,N
1663795435.2,286047003.1,N
1663795455.0,286047004.3,N
1663795455.9,286047004.3,N
1663795475.8,286047000.4,N
1663795495.6,286047000.2,N
1663795515.4,286047000.3,N
1663795535.3,286047002.1,N
1663795555.1,286047002.4,N
1663795575.9,286047000.7,N
1663795595.7,286047001.0,N
1663795615.5,286046998.6,N
1663795635.4,286047001.1,N
1663795655.2,286046996.9,N
1663795675.0,286046997.5,N
1663795675.9,286046997.5,N
1663795695.8,286046997.7,N
1663795715.6,286046996.8,N
1663795735.5,286046997.0,N
1663795755.3,286046997.2,N
1663795775.1,286046999.5,N
1663795795.9,286047001.0,N
1663795815.7,286046999.3,N
1663795835.5,286046995.1,N
1663795855.4,286046995.0,N
1663795875.2,286046993.4,N
1663795895.1,286046993.3,N
1663795896.0,286046993.3,N
1663795915.8,286046996.3,N
1663795935.6,286046996.3,N
1663795955.1,286046998.0,N
1663795975.9,286046996.8,N
1663795995.7,286046998.5,N
1663796015.5,286046996.5,N
1663796035.4,286047000.8,N
1663796055.2,286047000.7,N
1663796075.0,286047001.2,N
1663796075.9,286047001.2,N
1663796095.8,286046999.4,N
1663796115.6,286046998.5,N
1663796135.5,286047000.7,N
1663796155.3,286046999.8,N
1663796175.1,286047002.5,N
1663796195.9,286047002.6,N
1663796215.7,286047002.8,N
1663796235.6,286047002.6,N
1663796255.4,286047001.9,N
1663796275.2,286047004.3,N
1663796295.1,286047002.1,N
1663796296.0,286047002.1,N
1663796315.8,286047001.4,N
1663796335.6,286047001.4,N
1663796355.5,286047002.7,N
1663796375.3,286047001.5,N
1663796395.2,286047004.4,N
1663796415.9,286047003.6,N
1663796435.7,286047005.6,N
1663796455.6,286047001.8,N
1663796475.4,286047001.5,N
1663796495.2,286047002.5,N
1663796515.1,286046999.7,N
1663796516.0,286046999.7,N
1663796535.8,286047000.7,N
1663796555.7,286046999.9,N
1663796575.5,286046998.1,N
1663796595.3,286047002.3,N
1663796615.2,286047002.1,N
1663796635.0,286047002.2,N
1663796635.9,286047002.2,N
1663796655.8,286047002.7,N
1663796675.6,286047001.6,N
1663796695.4,286047002.2,N
1663796715.3,286047000.5,N
1663796735.1,286047001.6,N
1663796755.8,286047001.7,N
1663796775.7,286047002.0,N
1663796795.5,286047004.3,N
1663796815.4,286047004.0,N
1663796835.2,286047001.6,N
1663796855.0,286046999.7,N
1663796855.9,286046999.7,N
1663796875.8,286047001.0,N
1663796895.6,286047000.1,N
1663796915.4,286047000.1,N
1663796935.3,286047002.8,N
1663796955.1,286047004.1,N
1663796975.9,286047002.0,N
1663796995.7,286047002.2,N
1663797015.5,286047003.6,N
1663797035.4,286047005.6,Y
1663797055.2,286047002.5,P
1663797075.0,286047001.6,P
1663797076.0,286047001.6,P
1663797095.8,286047001.2,N
1663797115.6,286046998.5,Y
1663797135.5,286046995.3,P
1663797155.3,286046996.6,N
1663797175.1,286046995.0,N
1663797195.9,286046997.1,N
1663797215.7,286046999.6,N
1663797235.6,286046996.8,N
1663797255.4,286046994.9,N
1663797275.2,286046996.6,N
1663797295.1,286046998.7,N
1663797296.0,286046998.7,N
1663797315.8,286046999.2,N
1663797335.6,286046998.5,N
1663797355.5,286047000.0,N
1663797375.3,286047002.7,N
1663797395.2,286046998.1,N
1663797415.9,286047000.8,N
1663797435.7,286047000.7,N
1663797455.6,286047000.6,N
1663797475.4,286047000.5,N
1663797495.2,286047002.8,N
1663797515.1,286046998.1,N
1663797516.0,286046998.1,N
1663797535.8,286046998.5,N
1663797555.7,286046997.2,N
1663797575.5,286046997.8,N
1663797595.3,286046997.3,N
